This demonstration page uses our WeatherBlox Daily Observations layout. Learn more.

Left ArrowRight Arrow

Hourly Observations for January 28, 2016

Temp ( °F °C ) Dew Point ( °F °C ) Humidity (%) Winds ( mph kmh ) Pressure ( in mb ) Visibility ( mi km ) Precip ( " mm )
12:51 am 00:51 Clear 33 0.6 20 -6.7 58 58 N 3 6 30.24 1024 10 16 N/A
1:51 am 01:51 Clear 31 -0.6 20 -6.7 64 64 N N/A 30.24 1024 10 16 N/A
2:51 am 02:51 Clear 31 -0.6 20 -6.7 64 64 N N/A 30.25 1024 10 16 N/A
3:51 am 03:51 Clear 29 -1.7 19 -7.2 66 66 E 5 7 30.24 1024 10 16 N/A
4:51 am 04:51 Clear 27 -2.8 19 -7.2 72 72 SSE 3 6 30.25 1024 10 16 N/A
5:51 am 05:51 Clear 27 -2.8 19 -7.2 72 72 NNW 5 7 30.27 1025 10 16 N/A
6:51 am 06:51 Clear 26 -3.3 19 -7.2 75 75 N N/A 30.30 1026 10 16 N/A
7:51 am 07:51 Sunny 30 -1.1 20 -6.7 66 66 ESE 5 7 30.31 1026 10 16 N/A
8:51 am 08:51 Sunny 36 2.2 22 -5.6 57 57 N N/A 30.30 1026 10 16 N/A
9:51 am 09:51 Sunny 43 6.1 22 -5.6 43 43 N N/A 30.29 1026 10 16 N/A
10:51 am 10:51 Sunny 49 9.4 22 -5.6 35 35 VRB 3 6 30.26 1025 10 16 N/A
11:51 am 11:51 Sunny 54 12.2 22 -5.6 29 29 N N/A 30.23 1024 10 16 N/A
12:51 pm 12:51 Sunny 57 13.9 20 -6.7 24 24 E 6 9 30.18 1022 10 16 N/A
1:51 pm 13:51 Sunny 60 15.6 20 -6.7 21 21 undefined N/A 30.14 1021 10 16 N/A
2:51 pm 14:51 Sunny 63 17.2 20 -6.7 19 19 N N/A 30.11 1020 10 16 N/A
3:51 pm 15:51 Sunny 63 17.2 19 -7.2 18 18 SE 3 6 30.10 1019 10 16 N/A
4:51 pm 16:51 Sunny 63 17.2 19 -7.2 18 18 N N/A 30.09 1019 10 16 N/A
5:51 pm 17:51 Clear 58 14.4 20 -6.7 23 23 N N/A 30.09 1019 10 16 N/A
6:51 pm 18:51 Clear 47 8.3 21 -6.1 36 36 NNE 3 6 30.12 1020 10 16 N/A
7:51 pm 19:51 Clear 45 7.2 21 -6.1 39 39 NNE 3 6 30.13 1020 10 16 N/A
8:51 pm 20:51 Clear 45 7.2 22 -5.6 40 40 SE 6 9 30.14 1021 10 16 N/A
9:51 pm 21:51 Clear 40 4.4 21 -6.1 47 47 E 7 11 30.14 1021 10 16 N/A
10:51 pm 22:51 Clear 39 3.9 22 -5.6 50 50 E 3 6 30.13 1020 10 16 N/A
11:51 pm 23:51 Clear 36 2.2 21 -6.1 55 55 N N/A 30.12 1020 10 16 N/A

Powered by AerisWeather